| time (UTC) | temp F | wind direction | speed MPH | gust MPH | rain 1hr in | rain 24hr in | rain mn in | humidity % | barometer mb |
| 20260510030652 | 49 | 294 | 3.0 | 9.0 | 0.00 | 0.07 | 0.07 | 76 | 992.9 |
| 20260510030150 | 49 | 63 | 4.0 | 11.0 | 0.00 | 0.07 | 0.07 | 75 | 992.8 |
| 20260510025647 | 50 | 110 | 0.0 | 11.0 | 0.00 | 0.07 | 0.07 | 74 | 993.0 |
| 20260510025144 | 50 | 114 | 4.0 | 9.0 | 0.00 | 0.07 | 0.07 | 74 | 992.9 |
| 20260510024642 | 51 | 60 | 0.0 | 5.0 | 0.00 | 0.07 | 0.07 | 74 | 992.7 |
| 20260510024138 | 50 | 172 | 5.0 | 16.0 | 0.00 | 0.07 | 0.07 | 75 | 992.8 |
| 20260510023634 | 50 | 117 | 2.0 | 13.0 | 0.00 | 0.07 | 0.07 | 75 | 993.1 |
| 20260510023131 | 50 | 90 | 4.0 | 10.0 | 0.00 | 0.07 | 0.07 | 75 | 992.8 |
| 20260510022631 | 50 | 51 | 3.0 | 10.0 | 0.00 | 0.07 | 0.07 | 76 | 992.7 |
| 20260510022126 | 50 | 166 | 1.0 | 13.0 | 0.00 | 0.07 | 0.07 | 76 | 993.1 |
| 20260510021622 | 49 | 75 | 2.0 | 11.0 | 0.00 | 0.07 | 0.07 | 77 | 993.0 |
| 20260510021120 | 49 | 30 | 4.0 | 10.0 | 0.00 | 0.07 | 0.07 | 77 | 993.0 |
| 20260510020614 | 49 | 56 | 5.0 | 5.0 | 0.00 | 0.07 | 0.07 | 78 | 993.1 |
| 20260510020110 | 48 | 346 | 2.0 | 5.0 | 0.00 | 0.07 | 0.07 | 78 | 993.0 |
| 20260510015606 | 48 | 56 | 3.0 | 10.0 | 0.00 | 0.07 | 0.07 | 79 | 993.0 |
| 20260510015103 | 49 | 50 | 3.0 | 8.0 | 0.00 | 0.07 | 0.07 | 76 | 993.3 |
| 20260510014558 | 49 | 204 | 2.0 | 4.0 | 0.00 | 0.07 | 0.07 | 76 | 993.2 |
| 20260510014056 | 48 | 119 | 3.0 | 13.0 | 0.00 | 0.07 | 0.07 | 76 | 993.2 |
| 20260510013555 | 49 | 27 | 5.0 | 9.0 | 0.00 | 0.07 | 0.07 | 76 | 993.2 |
| 20260510013052 | 49 | 153 | 5.0 | 7.0 | 0.00 | 0.07 | 0.07 | 75 | 993.1 |
| 20260510012545 | 49 | 105 | 1.0 | 7.0 | 0.00 | 0.07 | 0.07 | 76 | 993.2 |
| 20260510012042 | 49 | 75 | 3.0 | 7.0 | 0.00 | 0.07 | 0.07 | 75 | 993.1 |
| 20260510011542 | 49 | 56 | 2.0 | 8.0 | 0.00 | 0.07 | 0.07 | 76 | 993.1 |
| 20260510011038 | 50 | 131 | 4.0 | 9.0 | 0.00 | 0.07 | 0.07 | 76 | 993.3 |
| 20260510010535 | 50 | 47 | 3.0 | 9.0 | 0.00 | 0.07 | 0.07 | 77 | 993.3 |
| 20260510010032 | 50 | 35 | 1.0 | 6.0 | 0.00 | 0.07 | 0.07 | 78 | 993.2 |
| 20260510005527 | 50 | 135 | 3.0 | 6.0 | 0.00 | 0.07 | 0.07 | 78 | 993.2 |
| 20260510005025 | 49 | 95 | 3.0 | 9.0 | 0.00 | 0.07 | 0.07 | 79 | 993.3 |
| 20260510004523 | 48 | 67 | 3.0 | 9.0 | 0.00 | 0.07 | 0.07 | 80 | 993.2 |
| 20260510004021 | 48 | 107 | 4.0 | 12.0 | 0.00 | 0.07 | 0.07 | 79 | 993.3 |
| 20260510003517 | 48 | 135 | 4.0 | 9.0 | 0.00 | 0.07 | 0.07 | 81 | 993.1 |
| 20260510003013 | 47 | 164 | 4.0 | 15.0 | 0.00 | 0.07 | 0.07 | 81 | 993.1 |
| 20260510002508 | 47 | 144 | 16.0 | 17.0 | 0.00 | 0.07 | 0.07 | 80 | 993.3 |
| 20260510002005 | 48 | 134 | 8.0 | 14.0 | 0.00 | 0.07 | 0.07 | 78 | 993.1 |
| 20260510001503 | 48 | 103 | 4.0 | 7.0 | 0.00 | 0.07 | 0.07 | 78 | 993.3 |
| 20260510001001 | 48 | 146 | 11.0 | 17.0 | 0.00 | 0.07 | 0.07 | 76 | 993.0 |
| 20260510000456 | 49 | 11 | 5.0 | 13.0 | 0.00 | 0.07 | 0.07 | 75 | 993.0 |
| 20260509235952 | 50 | 166 | 5.0 | 17.0 | 0.00 | 0.07 | 0.07 | 75 | 992.9 |
| 20260509235449 | 50 | 55 | 3.0 | 7.0 | 0.00 | 0.07 | 0.07 | 74 | 993.1 |
| 20260509234945 | 50 | 20 | 3.0 | 11.0 | 0.00 | 0.07 | 0.07 | 75 | 993.0 |
| 20260509234443 | 50 | 126 | 1.0 | 11.0 | 0.00 | 0.07 | 0.07 | 74 | 992.9 |
| 20260509233941 | 51 | 206 | 3.0 | 12.0 | 0.00 | 0.07 | 0.07 | 73 | 992.9 |
| 20260509233438 | 50 | 27 | 6.0 | 10.0 | 0.00 | 0.07 | 0.07 | 74 | 993.1 |
| 20260509232934 | 50 | 172 | 4.0 | 13.0 | 0.00 | 0.07 | 0.07 | 75 | 992.9 |
| 20260509232432 | 50 | 98 | 3.0 | 9.0 | 0.00 | 0.07 | 0.07 | 79 | 993.2 |
| 20260509231927 | 50 | 211 | 4.0 | 12.0 | 0.00 | 0.07 | 0.07 | 76 | 993.3 |
| 20260509231424 | 50 | 152 | 0.0 | 15.0 | 0.00 | 0.07 | 0.07 | 75 | 993.1 |
| 20260509230922 | 51 | 165 | 4.0 | 13.0 | 0.00 | 0.07 | 0.07 | 74 | 993.1 |
| 20260509230419 | 52 | 137 | 5.0 | 16.0 | 0.00 | 0.07 | 0.07 | 76 | 993.2 |
| 20260509225915 | 51 | 310 | 3.0 | 8.0 | 0.00 | 0.07 | 0.07 | 75 | 993.4 |
| 20260509225411 | 52 | 54 | 3.0 | 10.0 | 0.00 | 0.07 | 0.07 | 76 | 993.0 |
| 20260509224908 | 50 | 167 | 10.0 | 16.0 | 0.00 | 0.07 | 0.07 | 76 | 993.2 |
| 20260509224403 | 49 | 34 | 3.0 | 13.0 | 0.00 | 0.07 | 0.07 | 80 | 993.2 |
| 20260509223901 | 48 | 165 | 7.0 | 13.0 | 0.00 | 0.07 | 0.07 | 81 | 993.2 |
| 20260509223357 | 48 | 90 | 1.0 | 11.0 | 0.00 | 0.07 | 0.07 | 82 | 993.5 |
| 20260509222854 | 48 | 56 | 2.0 | 9.0 | 0.00 | 0.07 | 0.07 | 82 | 993.3 |
| 20260509222355 | 47 | 131 | 3.0 | 6.0 | 0.00 | 0.07 | 0.07 | 83 | 993.1 |
| 20260509221850 | 47 | 90 | 2.0 | 13.0 | 0.00 | 0.07 | 0.07 | 82 | 993.0 |
| 20260509221348 | 48 | 0 | 2.0 | 11.0 | 0.00 | 0.07 | 0.07 | 82 | 993.1 |
| 20260509220843 | 48 | 87 | 7.0 | 14.0 | 0.00 | 0.07 | 0.07 | 80 | 993.2 |
| 20260509220339 | 48 | 76 | 8.0 | 12.0 | 0.00 | 0.07 | 0.07 | 78 | 993.0 |
| 20260509215835 | 49 | 130 | 9.0 | 15.0 | 0.00 | 0.07 | 0.07 | 76 | 993.1 |
| 20260509215332 | 49 | 103 | 6.0 | 16.0 | 0.00 | 0.07 | 0.07 | 76 | 993.0 |
| 20260509214829 | 50 | 163 | 2.0 | 12.0 | 0.00 | 0.07 | 0.07 | 74 | 992.9 |
| 20260509214326 | 50 | 142 | 10.0 | 17.0 | 0.00 | 0.07 | 0.07 | 76 | 992.9 |
| 20260509213823 | 50 | 158 | 5.0 | 14.0 | 0.00 | 0.07 | 0.07 | 76 | 992.8 |
| 20260509213318 | 50 | 98 | 3.0 | 11.0 | 0.00 | 0.07 | 0.07 | 76 | 992.8 |
| 20260509212816 | 50 | 32 | 3.0 | 14.0 | 0.00 | 0.07 | 0.07 | 74 | 992.9 |
| 20260509212314 | 51 | 42 | 9.0 | 16.0 | 0.00 | 0.07 | 0.07 | 76 | 992.7 |
| 20260509211809 | 50 | 77 | 2.0 | 7.0 | 0.00 | 0.07 | 0.07 | 77 | 992.8 |
| 20260509211305 | 49 | 156 | 5.0 | 9.0 | 0.00 | 0.07 | 0.07 | 78 | 992.7 |
| 20260509210802 | 48 | 99 | 3.0 | 11.0 | 0.00 | 0.07 | 0.07 | 78 | 992.8 |
| 20260509210300 | 48 | 156 | 5.0 | 15.0 | 0.00 | 0.07 | 0.07 | 78 | 992.7 |
| 20260509205759 | 48 | 162 | 2.0 | 7.0 | 0.00 | 0.07 | 0.07 | 81 | 992.8 |
| 20260509205254 | 48 | 220 | 3.0 | 15.0 | 0.00 | 0.07 | 0.07 | 80 | 992.4 |
| 20260509204750 | 47 | 63 | 0.0 | 16.0 | 0.00 | 0.07 | 0.07 | 80 | 992.9 |
| 20260509204247 | 47 | 182 | 6.0 | 7.0 | 0.00 | 0.07 | 0.07 | 81 | 992.6 |
| 20260509203743 | 47 | 114 | 5.0 | 8.0 | 0.00 | 0.07 | 0.07 | 82 | 992.7 |
| 20260509203241 | 47 | 39 | 2.0 | 7.0 | 0.00 | 0.07 | 0.07 | 83 | 992.9 |
| 20260509202736 | 47 | 98 | 0.0 | 7.0 | 0.00 | 0.07 | 0.07 | 82 | 992.9 |
| 20260509202233 | 47 | 0 | 3.0 | 6.0 | 0.00 | 0.07 | 0.07 | 82 | 992.9 |
| 20260509201727 | 47 | 65 | 0.0 | 6.0 | 0.00 | 0.07 | 0.07 | 87 | 992.8 |
| 20260509201224 | 47 | 3 | 3.0 | 4.0 | 0.00 | 0.07 | 0.07 | 88 | 992.8 |
| 20260509200721 | 46 | 166 | 1.0 | 5.0 | 0.00 | 0.07 | 0.07 | 88 | 992.7 |
| 20260509200215 | 45 | 51 | 5.0 | 5.0 | 0.00 | 0.07 | 0.07 | 89 | 992.9 |
| 20260509195711 | 45 | 26 | 3.0 | 5.0 | 0.00 | 0.07 | 0.07 | 90 | 992.8 |
| 20260509195207 | 44 | 83 | 3.0 | 5.0 | 0.00 | 0.07 | 0.07 | 89 | 993.0 |
| 20260509194701 | 44 | 206 | 3.0 | 5.0 | 0.00 | 0.07 | 0.07 | 89 | 992.8 |
| 20260509194158 | 44 | 320 | 1.0 | 5.0 | 0.00 | 0.07 | 0.07 | 89 | 992.9 |
| 20260509193654 | 44 | 167 | 3.0 | 7.0 | 0.00 | 0.07 | 0.07 | 89 | 993.0 |
| 20260509193149 | 44 | 149 | 3.0 | 7.0 | 0.00 | 0.07 | 0.07 | 90 | 992.9 |
| 20260509192646 | 44 | 75 | 4.0 | 5.0 | 0.00 | 0.07 | 0.07 | 90 | 992.7 |
| 20260509192141 | 44 | 182 | 3.0 | 7.0 | 0.00 | 0.07 | 0.07 | 91 | 992.8 |
| 20260509191635 | 44 | 86 | 2.0 | 7.0 | 0.00 | 0.07 | 0.07 | 91 | 992.5 |
| 20260509191132 | 43 | 45 | 3.0 | 5.0 | 0.00 | 0.07 | 0.07 | 92 | 992.8 |
| 20260509190629 | 44 | 120 | 0.0 | 8.0 | 0.00 | 0.07 | 0.07 | 93 | 992.8 |
| 20260509190126 | 43 | 122 | 5.0 | 5.0 | 0.00 | 0.07 | 0.07 | 92 | 992.5 |
| 20260509185624 | 43 | 355 | 3.0 | 3.0 | 0.00 | 0.07 | 0.07 | 93 | 992.9 |
| 20260509185120 | 42 | 139 | 0.0 | 6.0 | 0.00 | 0.07 | 0.07 | 92 | 992.9 |
| 20260509184618 | 42 | 82 | 1.0 | 4.0 | 0.00 | 0.07 | 0.07 | 93 | 992.7 |
| 20260509184114 | 42 | 96 | 1.0 | 4.0 | 0.00 | 0.07 | 0.07 | 94 | 992.8 |
| 20260509183610 | 41 | 130 | 3.0 | 4.0 | 0.00 | 0.07 | 0.07 | 94 | 992.6 |
| 20260509183106 | 42 | 109 | 1.0 | 5.0 | 0.00 | 0.07 | 0.07 | 94 | 992.8 |
| 20260509182602 | 42 | 90 | 1.0 | 4.0 | 0.02 | 0.07 | 0.07 | 94 | 992.7 |
| 20260509182059 | 41 | 180 | 1.0 | 3.0 | 0.02 | 0.07 | 0.07 | 94 | 992.6 |
| 20260509181558 | 41 | 254 | 2.0 | 6.0 | 0.02 | 0.06 | 0.06 | 94 | 993.0 |
| 20260509181054 | 41 | 120 | 0.0 | 4.0 | 0.02 | 0.06 | 0.06 | 93 | 992.8 |
| 20260509180550 | 41 | 70 | 3.0 | 5.0 | 0.00 | 0.06 | 0.06 | 94 | 992.8 |
| 20260509180048 | 41 | 90 | 0.0 | 3.0 | 0.00 | 0.06 | 0.06 | 94 | 992.8 |
| 20260509175543 | 41 | 311 | 0.0 | 5.0 | 0.00 | 0.06 | 0.06 | 94 | 992.8 |
| 20260509175041 | 41 | 151 | 4.0 | 6.0 | 0.00 | 0.06 | 0.06 | 95 | 993.0 |
| 20260509174537 | 40 | 129 | 2.0 | 7.0 | 0.00 | 0.06 | 0.06 | 95 | 992.7 |
| 20260509174032 | 40 | 72 | 0.0 | 6.0 | 0.00 | 0.06 | 0.06 | 95 | 992.7 |
| 20260509173526 | 40 | 90 | 2.0 | 8.0 | 0.00 | 0.06 | 0.06 | 95 | 992.7 |
| 20260509173023 | 40 | 270 | 2.0 | 7.0 | 0.00 | 0.06 | 0.06 | 96 | 992.9 |
| 20260509172520 | 39 | 63 | 2.0 | 12.0 | 0.00 | 0.06 | 0.06 | 96 | 992.9 |
| 20260509172016 | 39 | 120 | 3.0 | 6.0 | 0.00 | 0.06 | 0.06 | 96 | 993.0 |
| 20260509171512 | 39 | 85 | 5.0 | 6.0 | 0.00 | 0.06 | 0.06 | 95 | 993.2 |
| 20260509171009 | 39 | 97 | 3.0 | 5.0 | 0.00 | 0.06 | 0.06 | 96 | 993.2 |
| 20260509170504 | 39 | 147 | 9.0 | 9.0 | 0.00 | 0.06 | 0.06 | 96 | 993.2 |
| 20260509170001 | 39 | 72 | 3.0 | 6.0 | 0.00 | 0.06 | 0.06 | 96 | 993.1 |
| 20260509165459 | 39 | 152 | 5.0 | 7.0 | 0.00 | 0.06 | 0.06 | 96 | 993.3 |
| 20260509164955 | 39 | 61 | 3.0 | 8.0 | 0.00 | 0.06 | 0.06 | 96 | 993.4 |
| 20260509164451 | 38 | 198 | 3.0 | 9.0 | 0.00 | 0.06 | 0.06 | 96 | 993.2 |
| 20260509163947 | 39 | 276 | 2.0 | 6.0 | 0.00 | 0.06 | 0.06 | 97 | 993.3 |
| 20260509163445 | 38 | 165 | 2.0 | 4.0 | 0.00 | 0.06 | 0.06 | 97 | 993.3 |
| 20260509162944 | 38 | 140 | 3.0 | 6.0 | 0.00 | 0.06 | 0.06 | 97 | 993.2 |
| 20260509162443 | 38 | 90 | 4.0 | 11.0 | 0.00 | 0.06 | 0.06 | 97 | 993.2 |
| 20260509161938 | 37 | 342 | 1.0 | 12.0 | 0.00 | 0.06 | 0.06 | 97 | 993.4 |
| 20260509161435 | 38 | 124 | 7.0 | 7.0 | 0.00 | 0.06 | 0.06 | 98 | 993.3 |
| 20260509160930 | 38 | 166 | 2.0 | 4.0 | 0.00 | 0.06 | 0.06 | 98 | 993.5 |
| 20260509160426 | 37 | 90 | 0.0 | 3.0 | 0.00 | 0.06 | 0.06 | 98 | 993.4 |
| 20260509155921 | 37 | 70 | 0.0 | 5.0 | 0.00 | 0.06 | 0.06 | 98 | 993.5 |
| 20260509155418 | 37 | 121 | 2.0 | 6.0 | 0.00 | 0.06 | 0.06 | 98 | 993.5 |
| 20260509154915 | 36 | 120 | 3.0 | 6.0 | 0.00 | 0.06 | 0.06 | 98 | 993.6 |
| 20260509154411 | 36 | 152 | 3.0 | 11.0 | 0.00 | 0.06 | 0.06 | 98 | 993.3 |
| 20260509153908 | 36 | 109 | 6.0 | 11.0 | 0.02 | 0.06 | 0.06 | 98 | 993.6 |
| 20260509153405 | 36 | 147 | 4.0 | 8.0 | 0.02 | 0.06 | 0.06 | 98 | 993.5 |
| 20260509152902 | 36 | 79 | 0.0 | 9.0 | 0.00 | 0.06 | 0.06 | 98 | 993.5 |
| 20260509152358 | 36 | 150 | 3.0 | 6.0 | 0.02 | 0.06 | 0.06 | 98 | 993.5 |
| 20260509151855 | 36 | 60 | 2.0 | 4.0 | 0.02 | 0.06 | 0.06 | 98 | 993.3 |
| 20260509151351 | 36 | 22 | 8.0 | 8.0 | 0.00 | 0.05 | 0.05 | 98 | 993.6 |
| 20260509150850 | 37 | 74 | 0.0 | 5.0 | 0.00 | 0.05 | 0.05 | 98 | 993.6 |
| 20260509150347 | 37 | 78 | 2.0 | 7.0 | 0.02 | 0.05 | 0.05 | 98 | 993.7 |
| 20260509145845 | 36 | 240 | 2.0 | 4.0 | 0.00 | 0.05 | 0.05 | 98 | 993.7 |
| 20260509145344 | 37 | 31 | 3.0 | 5.0 | 0.00 | 0.05 | 0.05 | 98 | 993.6 |
| 20260509144841 | 37 | 154 | 0.0 | 3.0 | 0.02 | 0.05 | 0.05 | 98 | 993.5 |
| 20260509144338 | 36 | 331 | 2.0 | 6.0 | 0.02 | 0.05 | 0.05 | 97 | 993.7 |
| 20260509143835 | 36 | 130 | 0.0 | 4.0 | 0.00 | 0.04 | 0.04 | 97 | 993.6 |
| 20260509143333 | 37 | 90 | 1.0 | 3.0 | 0.00 | 0.04 | 0.04 | 97 | 993.7 |
| 20260509142829 | 36 | 28 | 0.0 | 5.0 | 0.02 | 0.04 | 0.04 | 97 | 993.8 |
| 20260509142325 | 37 | 90 | 3.0 | 5.0 | 0.00 | 0.04 | 0.04 | 97 | 993.7 |
| 20260509141821 | 37 | 32 | 1.0 | 3.0 | 0.02 | 0.04 | 0.04 | 97 | 993.9 |
| 20260509141318 | 37 | 168 | 2.0 | 3.0 | 0.02 | 0.04 | 0.04 | 97 | 993.9 |
| 20260509140814 | 37 | 36 | 2.0 | 5.0 | 0.02 | 0.04 | 0.04 | 97 | 994.2 |
| 20260509140311 | 37 | 26 | 0.0 | 4.0 | 0.05 | 0.04 | 0.04 | 97 | 994.0 |
| 20260509135810 | 37 | 343 | 2.0 | 3.0 | 0.02 | 0.03 | 0.03 | 97 | 994.3 |
| 20260509135307 | 37 | 176 | 0.0 | 3.0 | 0.02 | 0.03 | 0.03 | 96 | 994.5 |
| 20260509134804 | 37 | 52 | 2.0 | 4.0 | 0.02 | 0.02 | 0.02 | 96 | 994.4 |
| 20260509134301 | 37 | 70 | 0.0 | 3.0 | 0.02 | 0.02 | 0.02 | 96 | 994.4 |
| 20260509133758 | 37 | 48 | 2.0 | 2.0 | 0.02 | 0.02 | 0.02 | 96 | 994.8 |
| 20260509133254 | 37 | 90 | 0.0 | 3.0 | 0.02 | 0.02 | 0.02 | 96 | 994.6 |
| 20260509132753 | 37 | 29 | 0.0 | 4.0 | 0.00 | 0.02 | 0.02 | 96 | 994.6 |
| 20260509132252 | 37 | 95 | 2.0 | 4.0 | 0.02 | 0.02 | 0.02 | 96 | 994.7 |
| 20260509131748 | 38 | 128 | 2.0 | 2.0 | 0.02 | 0.02 | 0.02 | 95 | 994.7 |
| 20260509131244 | 38 | 32 | 0.0 | 4.0 | 0.00 | 0.01 | 0.01 | 95 | 994.9 |
| 20260509130741 | 38 | 102 | 0.0 | 0.0 | 0.00 | 0.01 | 0.01 | 95 | 994.9 |
| 20260509130236 | 38 | 66 | 1.0 | 3.0 | 0.02 | 0.01 | 0.01 | 95 | 995.1 |
| 20260509125733 | 38 | 98 | 2.0 | 3.0 | 0.02 | 0.01 | 0.01 | 95 | 995.1 |
| 20260509125230 | 38 | 96 | 0.0 | 4.0 | 0.00 | 0.01 | 0.01 | 95 | 995.0 |
| 20260509124726 | 38 | 56 | 0.0 | 3.0 | 0.00 | 0.01 | 0.01 | 95 | 995.2 |
| 20260509124223 | 38 | 75 | 1.0 | 5.0 | 0.00 | 0.01 | 0.01 | 94 | 995.3 |
| 20260509123722 | 38 | 126 | 0.0 | 4.0 | 0.00 | 0.01 | 0.01 | 94 | 995.4 |
| 20260509123218 | 38 | 123 | 1.0 | 2.0 | 0.02 | 0.01 | 0.01 | 94 | 995.4 |
| 20260509122714 | 38 | 63 | 3.0 | 4.0 | 0.00 | 0.00 | 0.00 | 94 | 995.7 |
| 20260509122211 | 38 | 144 | 2.0 | 3.0 | 0.00 | 0.00 | 0.00 | 94 | 995.6 |
| 20260509121708 | 39 | 0 | 0.0 | 4.0 | 0.00 | 0.00 | 0.00 | 94 | 995.5 |
| 20260509121206 | 39 | 23 | 0.0 | 5.0 | 0.00 | 0.00 | 0.00 | 94 | 995.7 |
| 20260509120703 | 39 | 160 | 0.0 | 3.0 | 0.00 | 0.00 | 0.00 | 93 | 995.7 |
| 20260509120201 | 39 | 159 | 2.0 | 5.0 | 0.00 | 0.00 | 0.00 | 93 | 995.7 |
| 20260509115658 | 39 | 306 | 1.0 | 6.0 | 0.00 | 0.00 | 0.00 | 92 | 995.9 |
| 20260509115155 | 39 | 77 | 0.0 | 2.0 | 0.00 | 0.00 | 0.00 | 92 | 995.9 |
| 20260509114654 | 39 | 135 | 3.0 | 3.0 | 0.00 | 0.00 | 0.00 | 92 | 996.1 |
| 20260509114153 | 39 | 128 | 3.0 | 5.0 | 0.00 | 0.00 | 0.00 | 91 | 996.1 |
| 20260509113650 | 39 | 164 | 2.0 | 5.0 | 0.00 | 0.00 | 0.00 | 91 | 996.2 |
| 20260509113147 | 39 | 142 | 2.0 | 5.0 | 0.00 | 0.00 | 0.00 | 91 | 996.3 |
| 20260509112644 | 39 | 249 | 0.0 | 5.0 | 0.00 | 0.00 | 0.00 | 91 | 996.3 |
| 20260509112141 | 39 | 139 | 0.0 | 3.0 | 0.00 | 0.00 | 0.00 | 91 | 996.3 |
| 20260509111638 | 39 | 96 | 0.0 | 3.0 | 0.00 | 0.00 | 0.00 | 92 | 996.4 |
| 20260509111135 | 39 | 20 | 1.0 | 5.0 | 0.00 | 0.00 | 0.00 | 92 | 996.8 |
| 20260509110632 | 39 | 105 | 2.0 | 6.0 | 0.00 | 0.00 | 0.00 | 91 | 996.5 |
| 20260509110129 | 39 | 151 | 3.0 | 4.0 | 0.00 | 0.00 | 0.00 | 91 | 996.4 |
| 20260509105627 | 39 | 109 | 2.0 | 5.0 | 0.00 | 0.00 | 0.00 | 91 | 996.7 |
| 20260509105125 | 39 | 86 | 2.0 | 3.0 | 0.00 | 0.00 | 0.00 | 91 | 996.8 |
| 20260509104621 | 40 | 84 | 0.0 | 2.0 | 0.00 | 0.00 | 0.00 | 90 | 996.9 |
| 20260509104118 | 39 | 186 | 0.0 | 3.0 | 0.00 | 0.00 | 0.00 | 90 | 997.1 |
| 20260509103616 | 39 | 90 | 0.0 | 4.0 | 0.00 | 0.00 | 0.00 | 90 | 997.0 |
| 20260509103114 | 40 | 144 | 2.0 | 4.0 | 0.00 | 0.00 | 0.00 | 90 | 997.1 |
| 20260509102611 | 40 | 145 | 1.0 | 2.0 | 0.00 | 0.00 | 0.00 | 90 | 997.2 |
| 20260509102108 | 40 | 127 | 0.0 | 2.0 | 0.00 | 0.00 | 0.00 | 89 | 997.3 |
| 20260509101604 | 40 | 128 | 0.0 | 2.0 | 0.00 | 0.00 | 0.00 | 89 | 997.3 |
| 20260509101101 | 40 | 162 | 3.0 | 4.0 | 0.00 | 0.00 | 0.00 | 88 | 997.3 |
| 20260509100558 | 40 | 151 | 0.0 | 2.0 | 0.00 | 0.00 | 0.00 | 87 | 997.5 |
| 20260509100055 | 40 | 102 | 1.0 | 3.0 | 0.00 | 0.00 | 0.00 | 87 | 997.6 |
| 20260509095551 | 40 | 97 | 1.0 | 3.0 | 0.00 | 0.00 | 0.00 | 87 | 997.7 |
| 20260509095049 | 40 | 60 | 0.0 | 3.0 | 0.00 | 0.00 | 0.00 | 87 | 997.7 |
| 20260509094545 | 40 | 90 | 0.0 | 3.0 | 0.00 | 0.00 | 0.00 | 86 | 997.8 |
| 20260509094043 | 40 | 19 | 2.0 | 3.0 | 0.00 | 0.00 | 0.00 | 86 | 997.8 |
| 20260509093541 | 40 | 148 | 2.0 | 3.0 | 0.00 | 0.00 | 0.00 | 86 | 997.8 |
| 20260509093038 | 40 | 57 | 0.0 | 1.0 | 0.00 | 0.00 | 0.00 | 88 | 998.1 |
| 20260509092536 | 40 | 66 | 0.0 | 2.0 | 0.00 | 0.00 | 0.00 | 89 | 997.9 |
| 20260509092035 | 40 | 41 | 2.0 | 3.0 | 0.00 | 0.00 | 0.00 | 89 | 998.0 |
| 20260509091531 | 41 | 74 | 0.0 | 1.0 | 0.00 | 0.00 | 0.00 | 90 | 998.3 |
| 20260509091028 | 41 | 12 | 1.0 | 1.0 | 0.00 | 0.00 | 0.00 | 90 | 998.3 |
| 20260509090526 | 41 | 18 | 0.0 | 0.0 | 0.00 | 0.00 | 0.00 | 91 | 998.4 |
| 20260509090023 | 40 | 15 | 0.0 | 0.0 | 0.00 | 0.00 | 0.00 | 90 | 998.4 |
| 20260509085520 | 41 | 15 | 0.0 | 1.0 | 0.00 | 0.00 | 0.00 | 90 | 998.5 |
| 20260509085016 | 41 | 35 | 0.0 | 1.0 | 0.00 | 0.00 | 0.00 | 89 | 998.7 |
| 20260509084513 | 41 | 74 | 0.0 | 1.0 | 0.00 | 0.00 | 0.00 | 89 | 998.8 |
| 20260509084010 | 41 | 35 | 1.0 | 2.0 | 0.00 | 0.00 | 0.00 | 88 | 998.8 |
| 20260509083508 | 41 | 15 | 0.0 | 0.0 | 0.02 | 0.00 | 0.00 | 87 | 998.9 |
| 20260509083004 | 42 | 54 | 0.0 | 0.0 | 0.00 | 0.00 | 0.00 | 85 | 999.0 |
| 20260509082502 | 41 | 54 | 0.0 | 2.0 | 0.00 | 0.00 | 0.00 | 85 | 999.0 |
| 20260509081958 | 41 | 90 | 0.0 | 2.0 | 0.00 | 0.00 | 0.00 | 85 | 999.1 |
| 20260509081455 | 42 | 29 | 0.0 | 1.0 | 0.00 | 0.00 | 0.00 | 85 | 999.4 |
| 20260509080952 | 42 | 74 | 0.0 | 0.0 | 0.00 | 0.00 | 0.00 | 85 | 999.1 |
| 20260509080451 | 42 | 15 | 0.0 | 0.0 | 0.00 | 0.00 | 0.00 | 84 | 999.1 |
| 20260509075948 | 42 | 20 | 0.0 | 1.0 | 0.00 | 0.00 | 0.00 | 83 | 999.5 |
| 20260509075445 | 42 | 29 | 0.0 | 0.0 | 0.00 | 0.00 | 0.00 | 83 | 999.6 |
| 20260509074943 | 41 | 69 | 1.0 | 2.0 | 0.00 | 0.00 | 0.00 | 84 | 999.6 |
| 20260509074440 | 41 | 66 | 0.0 | 3.0 | 0.00 | 0.00 | 0.00 | 82 | 999.6 |
| 20260509073936 | 42 | 54 | 0.0 | 1.0 | 0.00 | 0.00 | 0.00 | 83 | 999.8 |
| 20260509073433 | 42 | 69 | 1.0 | 2.0 | 0.00 | 0.00 | 0.00 | 81 | 999.7 |
| 20260509072929 | 42 | 74 | 0.0 | 3.0 | 0.00 | 0.00 | 0.00 | 80 | 999.8 |
| 20260509072426 | 42 | 151 | 2.0 | 3.0 | 0.00 | 0.00 | 0.00 | 77 | 999.7 |
| 20260509071923 | 43 | 108 | 2.0 | 4.0 | 0.00 | 0.00 | 0.00 | 76 | 999.8 |
| 20260509071420 | 43 | 152 | 2.0 | 3.0 | 0.00 | 0.00 | 0.00 | 76 | 999.9 |
| 20260509070918 | 44 | 114 | 1.0 | 7.0 | 0.00 | 0.00 | 0.00 | 73 | 999.9 |
| 20260509070414 | 44 | 176 | 2.0 | 3.0 | 0.00 | 0.00 | 0.00 | 72 | 1000.0 |
| 20260509065909 | 44 | 102 | 1.0 | 2.0 | 0.00 | 0.00 | 0.00 | 72 | 1000.0 |
| 20260509065406 | 44 | 35 | 0.0 | 3.0 | 0.00 | 0.00 | 0.00 | 71 | 999.8 |
| 20260509064902 | 44 | 90 | 0.0 | 1.0 | 0.00 | 0.00 | 0.00 | 72 | 1000.0 |
| 20260509064400 | 44 | 18 | 0.0 | 1.0 | 0.00 | 0.00 | 0.00 | 71 | 1000.2 |
| 20260509063857 | 44 | 0 | 0.0 | 2.0 | 0.00 | 0.00 | 0.00 | 71 | 1000.1 |
| 20260509063353 | 44 | 36 | 0.0 | 2.0 | 0.00 | 0.00 | 0.00 | 71 | 1000.3 |
| 20260509062850 | 44 | 21 | 0.0 | 3.0 | 0.00 | 0.00 | 0.00 | 69 | 999.9 |
| 20260509062347 | 44 | 90 | 0.0 | 2.0 | 0.00 | 0.00 | 0.00 | 71 | 1000.2 |
| 20260509061844 | 44 | 30 | 0.0 | 2.0 | 0.00 | 0.00 | 0.00 | 70 | 1000.2 |
| 20260509061343 | 44 | 74 | 0.0 | 2.0 | 0.00 | 0.00 | 0.00 | 70 | 1000.1 |
| 20260509060839 | 44 | 53 | 2.0 | 2.0 | 0.00 | 0.00 | 0.00 | 70 | 1000.2 |
| 20260509060337 | 44 | 45 | 0.0 | 2.0 | 0.00 | 0.00 | 0.00 | 70 | 1000.2 |
| 20260509055832 | 44 | 0 | 1.0 | 2.0 | 0.00 | 0.00 | 0.00 | 69 | 1000.3 |
| 20260509055327 | 44 | 148 | 1.0 | 3.0 | 0.00 | 0.00 | 0.00 | 68 | 1000.5 |
| 20260509054825 | 45 | 149 | 4.0 | 5.0 | 0.00 | 0.00 | 0.00 | 67 | 1000.4 |
| 20260509054321 | 45 | 135 | 2.0 | 7.0 | 0.00 | 0.00 | 0.00 | 64 | 1000.3 |
| 20260509053820 | 45 | 148 | 2.0 | 5.0 | 0.00 | 0.00 | 0.00 | 64 | 1000.3 |
| 20260509053316 | 46 | 180 | 2.0 | 7.0 | 0.00 | 0.00 | 0.00 | 61 | 1000.2 |
| 20260509052814 | 46 | 103 | 2.0 | 5.0 | 0.00 | 0.00 | 0.00 | 61 | 1000.5 |
| 20260509052312 | 46 | 117 | 5.0 | 7.0 | 0.00 | 0.00 | 0.00 | 61 | 1000.6 |
| 20260509051809 | 46 | 117 | 2.0 | 4.0 | 0.00 | 0.00 | 0.00 | 66 | 1000.4 |
| 20260509051307 | 47 | 100 | 2.0 | 2.0 | 0.00 | 0.00 | 0.00 | 66 | 1000.5 |
| 20260509050804 | 47 | 8 | 0.0 | 1.0 | 0.00 | 0.00 | 0.00 | 63 | 1000.4 |
| 20260509050300 | 47 | 215 | 0.0 | 4.0 | 0.00 | 0.00 | 0.00 | 65 | 1000.5 |
| 20260509045757 | 47 | 189 | 3.0 | 4.0 | 0.00 | 0.00 | 0.00 | 56 | 1000.4 |
| 20260509045254 | 47 | 155 | 3.0 | 3.0 | 0.00 | 0.00 | 0.00 | 58 | 1000.8 |
| 20260509044752 | 47 | 147 | 3.0 | 6.0 | 0.00 | 0.00 | 0.00 | 59 | 1000.6 |
| 20260509044249 | 47 | 254 | 0.0 | 4.0 | 0.00 | 0.00 | 0.00 | 65 | 1000.6 |
| 20260509043745 | 47 | 264 | 1.0 | 2.0 | 0.00 | 0.00 | 0.00 | 64 | 1000.7 |
| 20260509043241 | 47 | 220 | 0.0 | 3.0 | 0.00 | 0.00 | 0.00 | 64 | 1000.6 |
| 20260509042737 | 47 | 196 | 4.0 | 4.0 | 0.00 | 0.00 | 0.00 | 64 | 1000.8 |
| 20260509042234 | 48 | 264 | 0.0 | 3.0 | 0.00 | 0.00 | 0.00 | 65 | 1000.8 |
| 20260509041731 | 48 | 206 | 0.0 | 2.0 | 0.00 | 0.00 | 0.00 | 65 | 1000.5 |
| 20260509041228 | 48 | 240 | 1.0 | 2.0 | 0.00 | 0.00 | 0.00 | 62 | 1000.8 |
| 20260509040726 | 48 | 220 | 0.0 | 3.0 | 0.00 | 0.00 | 0.00 | 62 | 1000.6 |
| 20260509040223 | 48 | 254 | 0.0 | 3.0 | 0.00 | 0.00 | 0.00 | 61 | 1001.0 |
| 20260509035719 | 48 | 180 | 3.0 | 5.0 | 0.00 | 0.00 | 0.00 | 63 | 1000.8 |
| 20260509035217 | 49 | 180 | 2.0 | 4.0 | 0.00 | 0.00 | 0.00 | 62 | 1000.7 |
| 20260509034714 | 49 | 178 | 4.0 | 4.0 | 0.00 | 0.00 | 0.00 | 62 | 1000.8 |
| 20260509034211 | 49 | 0 | 3.0 | 4.0 | 0.00 | 0.00 | 0.00 | 62 | 1000.9 |
| 20260509033708 | 49 | 228 | 0.0 | 3.0 | 0.00 | 0.00 | 0.00 | 62 | 1001.2 |
| 20260509033205 | 49 | 286 | 0.0 | 4.0 | 0.00 | 0.00 | 0.00 | 62 | 1001.1 |
| 20260509032702 | 49 | 258 | 4.0 | 5.0 | 0.00 | 0.00 | 0.00 | 61 | 1001.1 |
| 20260509032159 | 50 | 191 | 3.0 | 6.0 | 0.00 | 0.00 | 0.00 | 60 | 1001.0 |
| 20260509031657 | 50 | 265 | 3.0 | 6.0 | 0.00 | 0.00 | 0.00 | 58 | 1001.0 |
| 20260509031154 | 50 | 310 | 3.0 | 9.0 | 0.00 | 0.00 | 0.00 | 58 | 1001.2 |